Location: Hiekkapohja
(62.3333°N, 25.7833°E)
Time: 01:01:18
(UTC+00:00)

Cosmos 1733 - Pass Details

Date: 07 August 2020
Orbit: 504 x 522 km, 82.5° (Epoch: 20 September)

Event Time Altitude Azimuth Distance (km) Brightness Sun altitude
Exits shadow 00:07:39 - 165° (SSE) 2,129 5.9 -8.7°
Reaches altitude 10° 00:08:38 10° 161° (SSE) 1,745 5.5 -8.6°
Maximum altitude 00:12:10 36° 94° (E) 834 4.5 -8.4°
Drops below altitude 10° 00:15:45 10° 27° (NNE) 1,768 7.7 -8.2°
Sets 00:18:00 0° 19° (NNE) 2,664 9.0 -8.1°
